Overview Statistics Trail Chart Weather Telemetry Raw packets
 

This is the latest recevied weather packets stored in our database for station/object KO4LCK. If no packets are shown the sender has not sent any weather packets the latest 10 day(s).

<< 66 67 68 69 70 71 72 >>
Time Temp. Humidity Pressure Rain* Wind** Luminosity Snow
1788180294 22.78° C 94% 1022.7 hPa 0 mm - 119 W/m² -
1788179990 22.78° C 96% 1022.7 hPa 0 mm - 105 W/m² -
1788179689 22.22° C 96% 1022.6 hPa 0 mm - 49 W/m² -
1788179402 22.22° C 97% 1022.6 hPa 0 mm - 46 W/m² -
1788179079 21.67° C 97% 1022.5 hPa 0 mm - 44 W/m² -
1788178774 21.67° C 97% 1022.4 hPa 0 mm - 42 W/m² -
1788178469 21.67° C 96% 1022.5 hPa 0 mm - 39 W/m² -
1788178166 21.11° C 97% 1022.3 hPa 0 mm - 37 W/m² -
1788177865 21.11° C 96% 1022.5 hPa 0 mm - 33 W/m² -
1788177559 21.11° C 96% 1022.4 hPa 0 mm - 30 W/m² -
1788177256 21.11° C 96% 1022.3 hPa 0 mm - 27 W/m² -
1788176955 21.11° C 96% 1022.4 hPa 0 mm - 24 W/m² -
1788176654 20.56° C 96% 1022.1 hPa 0 mm - 20 W/m² -
1788176351 20.56° C 96% 1022 hPa 0 mm - 17 W/m² -
1788176050 20.56° C 96% 1022 hPa 0 mm - 14 W/m² -
1788175746 20.56° C 96% 1021.8 hPa 0 mm - 10 W/m² -
1788175446 20.56° C 96% 1022 hPa 0 mm - 7 W/m² -
1788175141 20.56° C 96% 1021.6 hPa 0 mm - 5 W/m² -
1788174837 20.56° C 96% 1021.7 hPa 0 mm - 3 W/m² -
1788174533 20.56° C 96% 1021.9 hPa 0 mm - 1 W/m² -
1788174227 20.56° C 96% 1021.8 hPa 0 mm - 1 W/m² -
1788173925 20.56° C 96% 1021.6 hPa 0 mm - 0 W/m² -
1788173621 20.56° C 96% 1021.6 hPa 0 mm - 0 W/m² -
1788173316 20.56° C 96% 1021.8 hPa 0 mm - 0 W/m² -
1788173012 20.56° C 96% 1021.6 hPa 0 mm - 0 W/m² -

* Rain latest hour (hover to see other rain measurements)
** Current wind speed in m/s (hover to see current wind gust speed)